Regional Weather Roundup
Issued by NWS

Home | Current Version | Previous Version | Graphics & Text | Print | Product List | Glossary Off
Versions: 1 2 3 4 5 6 7 8 9 10 11 12 13 14 15 16 17 18 19 20 21 22 23 24 25 26 27 28 29 30 31 32 33 34 35 36 37 38 39 40 41 42 43 44 45 46 47 48 49 50

000
ASUS43 KDTX 270901
RWRMI
MICHIGAN HOURLY REGIONAL WEATHER ROUNDUP
NATIONAL WEATHER SERVICE DETROIT/PONTIAC MI
400 AM EST FRI FEB 27 2015

NOTE: "FAIR" INDICATES FEW OR NO CLOUDS BELOW 12,000 FEET WITH NO
SIGNIFICANT WEATHER AND/OR OBSTRUCTION TO VISIBILITY.

MIZ047>049-052>055-059>063-066>070-074>076-081>083-271000-
SOUTHEAST LOWER MICHIGAN

CITY           SKY/WX    TMP DP  RH WIND       PRES   REMARKS
ADRIAN         CLEAR     -6 -11  79 CALM      30.40R
ALMA           CLEAR    -11 -16  75 CALM      30.41R
ANN ARBOR      CLEAR     -1  -7  75 NW5       30.38R WCI -11
BAD AXE        CLEAR    -13 -17  82 CALM      30.37S
CARO           CLEAR    -15 -20  78 CALM      30.39R
DETROIT CITY   MOCLDY     4  -3  73 CALM      30.40R
DETROIT        MOCLDY     0  -6  76 CALM      30.41R
FLINT          CLEAR    -13 -19  75 CALM      30.39R
GROSSE ILE     MOCLDY    -2  -6  84 CALM      30.40R
HILLSDALE      CLEAR     -7 -13  76 CALM      30.35R
HOWELL         CLEAR     -7 -11  80 W3        30.36S

CITY           SKY/WX    TMP DP  RH WIND       PRES   REMARKS
JACKSON        CLEAR     -7 -12  79 CALM      30.38R
LAMBERTVILLE   CLEAR     -4  -8  84 CALM      30.41R
LANSING        CLEAR     -5 -12  72 CALM      30.40R
LAPEER         FAIR     -12 -16  80 CALM      30.38R
MASON          CLEAR     -9 -15  75 CALM      30.38S
MONROE         MOCLDY    -6  -9  84 CALM      30.39R
PONTIAC        CLEAR     -8 -13  78 CALM      30.35R
PORT HOPE        N/A     -5 -11  75 W5        30.36R WCI -16
PORT HURON     CLEAR    -13 -18  77 NW3       30.39R
TRI CITIES     CLEAR     -2 -12  62 W6        30.41R WCI -14
TROY           CLEAR      2  -4  74 CALM      30.41R
SAGINAW HB     CLEAR     -4 -13  65 W5        30.41R WCI -15
$$
MIZ043>046-050>051-056>058-064>065-071>073-077>080-271000-
SOUTHWEST LOWER MICHIGAN

CITY           SKY/WX    TMP DP  RH WIND       PRES   REMARKS
BATTLE CREEK   CLEAR     -5 -12  72 CALM      30.39R
BENTON HARBOR  MOCLDY     1  -8  66 CALM      30.44R
BIG RAPIDS     CLEAR    -15 -20  77 CALM      30.37R
COLDWATER      CLEAR     -9 -15  77 CALM      30.39R
FREMONT        FAIR     -11 -17  76 CALM      30.40R
HOLLAND        PTCLDY    -6 -14  68 SE3       30.42S
GRAND RAPIDS   CLEAR     -5 -13  68 SE3       30.40R
IONIA          FAIR      -3 -12  66 CALM      30.39S
KALAMAZOO      CLEAR     -4 -11  72 CALM      30.40R
LUDINGTON      LGT SNOW  -4 -10  75 E5        30.40S WCI -15
MARSHALL       CLEAR    -19 -24  77 CALM      30.38S
MOUNT PLEASANT CLEAR    -10 -17  72 CALM      30.39S
MUSKEGON       CLEAR     -6 -13  71 SE3       30.42S
SOUTH HAVEN    MOCLDY     1 -10  62 SE3       30.43R
$$
MIZ016>042-271000-
NORTHERN LOWER MICHIGAN

CITY           SKY/WX    TMP DP  RH WIND       PRES   REMARKS
ALPENA         CLEAR     -8 -12  83 W5        30.36F WCI -19
BEAVER ISLAND  MOCLDY   -13 -17  80 CALM      30.36S
BELLAIRE       CLEAR    -21 -28  71 CALM      30.40S
CADILLAC       CLEAR    -22 -30  66 CALM      30.31R
CHARLEVOIX     CLEAR    -16 -21  78 CALM      30.40S
FRANKFORT      MOCLDY    -9 -13  80 CALM      30.39S
GAYLORD        CLEAR    -20 -23  86 CALM      30.29S
GRAYLING       FAIR     -27 -35  65 CALM      30.33S
HARBOR SPRINGS CLEAR    -15 -20  78 CALM      30.35S
HOUGHTON LAKE  PTCLDY   -18 -24  74 CALM      30.33F
MANISTEE       PTCLDY    -9 -15  77 E5        30.40S WCI -21
OSCODA         CLEAR    -12 -18  76 SW5       30.38R WCI -24
PELLSTON       CLEAR    -24 -31  69 CALM      30.36S
ROGERS CITY    CLOUDY    -4  -8  84 W6        30.37S WCI -16
TRAVERSE CITY  CLEAR    -16 -22  74 CALM      30.39R
$$
MIZ007>008-015-271000-
EASTERN UPPER MICHIGAN

CITY           SKY/WX    TMP DP  RH WIND       PRES   REMARKS
KINROSS        CLEAR     -8  -9  92 SW6       30.31F WCI -21
MACKINAC ISLAN CLEAR     -4  -8  79 W8        30.34S WCI -19
NEWBERRY       CLEAR     -7  -9  88 W9        30.31S WCI -24
S. S. MARIE    CLOUDY    -7 -11  83 SW3       30.31S
MUNISING         N/A    -10 -17  71 S10       30.35S WCI -29
$$
MIZ004>006-011>014-085-271000-
CENTRAL UPPER MICHIGAN

CITY           SKY/WX    TMP DP  RH WIND       PRES   REMARKS
MANISTIQUE     PTCLDY    -6 -11  79 W8        30.35S WCI -21
ESCANABA       CLEAR     -6 -18  54 W7        30.39S WCI -20
MENOMINEE      CLEAR     -9 -17  70 CALM      30.39F
SAWYER-GWINN   CLEAR    -13 -18  78 W3        30.29S
$$
MIZ001>003-009>011-084-271000-
WESTERN UPPER MICHIGAN

CITY           SKY/WX    TMP DP  RH WIND       PRES   REMARKS
HOUGHTON       CLEAR    -12 -16  82 W10       30.30S WCI -31
COPPER HARBOR    N/A      2  -6  69 W6        30.32S WCI  -9
IRONWOOD       CLEAR     -6 -13  71 W8        30.32S WCI -21
$$

ABBREVIATIONS USED IN REMARKS
   TC - TEMPERATURE IN CELSIUS
  WCI - WIND CHILL INDEX
   HX - HEAT INDEX
  VSB - VISIBILITY



USA.gov is the U.S. government's official web portal to all federal, state and local government web resources and services.